Regional Weather Roundup
Issued by NWS

Home | Current Version | Previous Version | Graphics & Text | Print | Product List | Glossary On
Versions: 1 2 3 4 5 6 7 8 9 10 11 12 13 14 15 16 17 18 19 20 21 22 23 24 25 26 27 28 29 30 31 32 33 34 35 36 37 38 39 40 41 42 43 44 45 46 47 48 49 50
066
ASUS43 KMPX 221710
RWRMN
WEATHER ROUNDUP FOR MINNESOTA
NATIONAL WEATHER SERVICE TWIN CITIES/CHANHASSEN MN
1200 PM CDT FRI MAY 22 2015


NOTE: "FAIR" INDICATES FEW OR NO CLOUDS BELOW 12,000 FEET WITH NO
SIGNIFICANT WEATHER AND/OR OBSTRUCTIONS TO VISIBILITY. N/A MEANS
CURRENT SKY AND/OR WEATHER CONDITIONS ARE NOT AVAILABLE.

MNZ060>063-068>070-221800-
   Twin Cities Metro

CITY           SKY/WX    TMP DP  RH WIND       PRES   REMARKS
TWIN CITIES    SUNNY     68  33  27 SE5       30.22S
ST PAUL        SUNNY     68  36  30 VRB3      30.23R
CRYSTAL        SUNNY     70  32  24 VRB3      30.22R
BLAINE         SUNNY     70  37  30 VRB3      30.23R
LAKEVILLE      SUNNY     66  36  32 NE7       30.22F
EDEN PRAIRIE   SUNNY     69  36  29 VRB6      30.21F
SOUTH ST PAUL  SUNNY     67  32  26 SW5       30.22S
LAKE ELMO      FAIR      66  36  32 CALM      30.24S
$$
MNZ001>005-007-008-013>017-022>024-027-028-221800-
   Northwest Minnesota

CITY           SKY/WX    TMP DP  RH WIND       PRES   REMARKS
BEMIDJI        SUNNY     66  32  28 SE6       30.19S
HALLOCK        SUNNY     72  41  33 SW8       30.14S
ROSEAU         SUNNY     68  43  40 SW10      30.15F
WARROAD        SUNNY     68  39  34 SW7       30.15F
THIEF RVR FALL SUNNY     68  32  26 SW3       30.18S
CROOKSTON      SUNNY     70  36  28 SW7       30.18S
FOSSTON        SUNNY     70  39  32 CALM      30.19S
DETROIT LAKES  SUNNY     66  32  28 W6        30.21S
MOORHEAD       SUNNY     66  37  34 S5        30.21S
PARK RAPIDS    SUNNY     68  30  24 S5        30.20R
MAHNOMEN       FAIR      67  32  27 CALM      30.19S
$$
MNZ006-009>011-018-025>026-221800-
   North Central Minnesota

CITY           SKY/WX    TMP DP  RH WIND       PRES   REMARKS
BAUDETTE       SUNNY     68  35  29 CALM      30.17S
FLAG ISLAND    SUNNY     54  43  66 S16       30.13F
INTL FALLS     SUNNY     65  29  25 VRB6      30.17F
WASKISH        SUNNY     63  46  55 CALM      30.19S
BIG FORK       SUNNY     66  30  26 CALM      30.19S
LONGVILLE      SUNNY     66  32  28 CALM      30.20S
GRAND RAPIDS   SUNNY     64  34  32 CALM      30.20F
CRANE LAKE     SUNNY     63  27  25 N8        30.19F
ORR            SUNNY     66  25  20 W1        30.16F
COOK           SUNNY     64  34  32 E3        30.19F
WALKER         FAIR      64  33  31 E6        30.19S
$$
MNZ012-019>021-037-221800-
   Northeast Minnesota

CITY           SKY/WX    TMP DP  RH WIND       PRES   REMARKS
DULUTH         SUNNY     66  31  27 NW12G18   30.20F
ELY            SUNNY     63  27  25 W3        30.19S
HIBBING        SUNNY     65  29  25 CALM      30.19F
EVELETH        SUNNY     63  28  27 NW3       30.20F
DULUTH HARBOR  SUNNY     48  37  66 NE6       30.23S
TWO HARBORS    SUNNY     61  39  44 SE6       30.20S
SILVER BAY     SUNNY     55  30  38 SE6       30.20S
GRAND MARAIS     N/A     42  33  70 E6        30.24S
G MARAIS ARPRT SUNNY     54  25  32 S8        30.20S
$$
MNZ029>031-032-039>041-046>048-054>057-064-221800-
   West Central Minnesota

CITY           SKY/WX    TMP DP  RH WIND       PRES   REMARKS
FERGUS FALLS   SUNNY     66  36  32 CALM      30.21S
WHEATON        SUNNY     68  37  32 NE3       30.22S
MORRIS         SUNNY     70  37  30 SE6       30.20S
ALEXANDRIA     SUNNY     66  33  29 W8        30.24R
ELBOW LAKE     FAIR      66  38  35 CALM      30.21S
WADENA         SUNNY     66  37  34 S5        30.21R
GLENWOOD       SUNNY     66  36  32 SW3       30.23S
APPLETON       SUNNY     72  32  23 CALM      30.20S
BENSON         SUNNY     70  34  26 CALM      30.21S
ORTONVILLE     SUNNY     70  28  21 NE7       30.21R
MADISON        SUNNY     70  36  28 S5        30.21R
WILLMAR        FAIR      70  36  28 SE3       30.23S
$$
MNZ033>034-036-042>043-049>051-058-059-221800-
   Central Minnesota

CITY           SKY/WX    TMP DP  RH WIND       PRES   REMARKS
ST CLOUD       SUNNY     68  33  27 CALM      30.22S
SAUK CENTRE    FAIR      67  36  31 S7        30.23S
PAYNESVILLE    SUNNY     64  33  31 CALM      30.23F
AITKIN         SUNNY     68  27  21 SW8       30.20R
PINE RIVER     SUNNY     66  39  37 SE6       30.23R
BRAINERD       SUNNY     67  33  28 CALM      30.22R
STAPLES        SUNNY     66  30  26 SW3       30.21S
LONG PRAIRIE   FAIR      64  34  32 CALM      30.23R
LITTLE FALLS   SUNNY     64  32  29 NW5       30.23R
LITCHFIELD     SUNNY     70  36  28 SE3       30.23S HAZE
BUFFALO        SUNNY     67  34  29 CALM      30.24S
MAPLE LAKE     SUNNY     69  38  33 E3        30.24S
$$
MNZ037-044-045-052-053-221800-
   East Central Minnesota

CITY           SKY/WX    TMP DP  RH WIND       PRES   REMARKS
PRINCETON      SUNNY     70  34  26 SW3       30.23S
MORA           SUNNY     64  32  29 E5        30.24R
CAMBRIDGE      SUNNY     70  45  40 NW3       30.21R
RUSH CITY      SUNNY     65  33  30 NE7       30.23R
MOOSE LAKE     SUNNY     64  34  32 N5        30.19F
HINCKLEY       FAIR      64  34  32 CALM      30.22S
CLOQUET        SUNNY     66  27  22 N5        30.20F
MCGREGOR       SUNNY     64  32  29 E3        30.21S
$$
MNZ071>073-080-081-089-090-097-098-221800-
   Southwest Minnesota

CITY           SKY/WX    TMP DP  RH WIND       PRES   REMARKS
MONTEVIDEO     SUNNY     72  37  28 CALM      30.22S
GRANITE FALLS  SUNNY     69  33  26 CALM      30.22S
CANBY          SUNNY     69  32  25 SE3       30.22S
MARSHALL       SUNNY     70  34  26 CALM      30.21S
REDWOOD FALLS  SUNNY     71  33  24 VRB3      30.21S
OLIVIA         SUNNY     68  32  26 CALM      30.21S
PIPESTONE      SUNNY     70  34  26 SE3       30.21S
WINDOM         SUNNY     70  34  26 CALM      30.22S
WORTHINGTON    SUNNY     70  36  28 CALM      30.22S
JACKSON        SUNNY     70  32  24 NE3       30.22F
TRACY          SUNNY     69  33  26 CALM      30.22S
SLAYTON        SUNNY     70  32  25 CALM      30.23S
$$
MNZ065>067-074>077-082>085-091>093-221800-
   South Central Minnesota

CITY           SKY/WX    TMP DP  RH WIND       PRES   REMARKS
MANKATO        SUNNY     68  34  28 CALM      30.23R
NEW ULM        SUNNY     66  30  26 CALM      30.22S
ST JAMES       SUNNY     70  28  21 E3        30.23S
FAIRMONT       SUNNY     70  30  23 NE8       30.22S
GLENCOE        SUNNY     69  37  30 E3        30.22S
FARIBAULT      SUNNY     70  34  26 NW8       30.22F
OWATONNA       SUNNY     70  30  23 NE3       30.22S
WASECA         SUNNY     68  34  28 N6        30.23S
ALBERT LEA     MOSUNNY   70  30  23 CALM      30.22R
$$
MNZ078>079-086>088-094>096-221800-
   Southeast Minnesota

CITY           SKY/WX    TMP DP  RH WIND       PRES   REMARKS
ROCHESTER      SUNNY     68  36  30 N7        30.23F
RED WING       SUNNY     70  30  23 NE7       30.21S
STANTON        SUNNY     69  32  25 NE8       30.21S
DODGE CENTER   SUNNY     68  30  24 E8        30.22S
WINONA         SUNNY     70  36  28 NE3       30.22S
AUSTIN         SUNNY     68  39  34 CALM      30.22R
PRESTON        SUNNY     66  32  27 CALM      30.22S
$$
ABBREVIATIONS USED IN REMARKS
   TC - TEMPERATURES IN CELSIUS
  WCI - WIND CHILL INDEX
   HX - HEAT INDEX
  VSB - VISIBILITY
$$



USA.gov is the U.S. government's official web portal to all federal, state and local government web resources and services.